Precipitable_Water
0.57 0.58 0.59 0.60 0.59 0.58 0.56 0.54 0.56 0.57 0.58 0.60 0.61 0.62 0.62 0.62 0.62 0.62 0.62 0.62 0.62 0.62 0.63 0.63 0.64 0.64 0.64 0.64 0.63 0.62 0.60 0.50 0.43 0.40 0.40 0.39 0.41 0.41 0.37 0.37 0.34 0.30 0.35 0.39 0.39 0.41 0.42 0.46 0.46 0.49 0.46 0.45 0.40 0.42 0.45 0.56 0.65 0.62 0.51 0.49 0.49 0.58 0.55 0.65 0.65 0.66 0.67 0.63 0.68 0.73 0.76 0.69 0.63 0.79 0.83 0.92 0.85 0.85 0.87 0.85 0.95 1.00 1.01 1.06 1.12 1.19 1.22 1.24
0.57 0.58 0.59 0.59 0.58 0.58 0.55 0.53 0.54 0.57 0.59 0.60 0.61 0.62 0.62 0.62 0.63 0.64 0.64 0.64 0.64 0.65 0.65 0.65 0.65 0.64 0.63 0.62 0.62 0.62 0.55 0.43 0.36 0.36 0.33 0.42 0.40 0.36 0.34 0.32 0.31 0.36 0.46 0.42 0.43 0.44 0.43 0.43 0.46 0.48 0.44 0.40 0.44 0.40 0.59 0.58 0.68 0.58 0.55 0.54 0.55 0.62 0.64 0.73 0.70 0.71 0.66 0.63 0.67 0.72 0.78 0.73 0.70 0.79 0.83 0.72 0.75 0.79 0.75 0.82 0.90 0.90 0.96 1.04 1.11 1.13 1.14 1.18
0.57 0.57 0.58 0.58 0.58 0.58 0.56 0.53 0.53 0.56 0.58 0.60 0.61 0.61 0.61 0.61 0.62 0.63 0.63 0.63 0.62 0.62 0.63 0.63 0.63 0.63 0.62 0.62 0.63 0.61 0.53 0.43 0.36 0.29 0.35 0.42 0.36 0.31 0.31 0.31 0.35 0.48 0.47 0.45 0.47 0.48 0.48 0.48 0.49 0.47 0.43 0.40 0.41 0.39 0.56 0.60 0.63 0.65 0.59 0.52 0.56 0.68 0.70 0.73 0.73 0.74 0.75 0.73 0.71 0.76 0.78 0.78 0.79 0.80 0.88 0.70 0.73 0.79 0.70 0.72 0.83 0.83 0.84 0.92 1.01 1.07 1.13 1.17
0.57 0.57 0.57 0.57 0.58 0.58 0.56 0.54 0.52 0.54 0.58 0.59 0.61 0.61 0.60 0.60 0.61 0.61 0.62 0.62 0.62 0.63 0.64 0.64 0.63 0.62 0.60 0.60 0.62 0.59 0.52 0.36 0.25 0.28 0.34 0.38 0.33 0.31 0.32 0.36 0.47 0.50 0.49 0.50 0.52 0.52 0.53 0.51 0.50 0.48 0.44 0.43 0.41 0.51 0.55 0.59 0.60 0.65 0.61 0.54 0.58 0.69 0.65 0.69 0.76 0.76 0.76 0.79 0.74 0.75 0.79 0.76 0.82 0.83 0.81 0.78 0.73 0.74 0.76 0.82 0.77 0.79 0.86 0.93 1.00 1.06 1.13 1.14
0.56 0.56 0.57 0.57 0.57 0.57 0.56 0.54 0.52 0.52 0.55 0.58 0.60 0.60 0.59 0.59 0.60 0.61 0.62 0.63 0.65 0.65 0.63 0.62 0.61 0.60 0.60 0.59 0.60 0.59 0.39 0.21 0.21 0.31 0.32 0.33 0.32 0.32 0.38 0.48 0.55 0.54 0.54 0.55 0.55 0.53 0.52 0.50 0.50 0.47 0.45 0.43 0.49 0.56 0.56 0.62 0.64 0.64 0.60 0.66 0.67 0.69 0.66 0.73 0.80 0.80 0.78 0.79 0.75 0.74 0.71 0.71 0.89 0.85 0.81 0.79 0.65 0.62 0.72 0.82 0.90 0.90 0.94 0.94 0.97 1.04 1.11 1.09
0.55 0.56 0.56 0.57 0.56 0.55 0.54 0.53 0.52 0.53 0.54 0.56 0.57 0.58 0.59 0.60 0.61 0.62 0.64 0.64 0.63 0.62 0.62 0.62 0.61 0.60 0.60 0.58 0.57 0.54 0.37 0.14 0.25 0.29 0.35 0.32 0.33 0.38 0.46 0.54 0.56 0.56 0.55 0.52 0.51 0.50 0.48 0.49 0.53 0.52 0.54 0.53 0.53 0.52 0.58 0.60 0.68 0.52 0.63 0.71 0.74 0.76 0.72 0.74 0.75 0.76 0.76 0.76 0.74 0.72 0.77 0.83 0.80 0.78 0.86 0.81 0.72 0.78 0.92 0.96 0.97 0.98 1.02 1.03 1.04 1.03 1.03 1.04
0.54 0.54 0.55 0.54 0.53 0.53 0.52 0.51 0.51 0.51 0.52 0.54 0.56 0.57 0.59 0.60 0.62 0.62 0.62 0.60 0.60 0.60 0.61 0.61 0.60 0.59 0.59 0.63 0.56 0.49 0.32 0.26 0.31 0.32 0.34 0.34 0.38 0.44 0.50 0.55 0.56 0.52 0.52 0.48 0.47 0.45 0.46 0.49 0.52 0.52 0.52 0.52 0.56 0.59 0.63 0.64 0.68 0.61 0.58 0.69 0.69 0.73 0.70 0.75 0.78 0.78 0.80 0.79 0.74 0.79 0.84 0.74 0.74 0.66 0.85 0.78 0.85 0.91 0.98 1.02 1.02 1.06 1.08 1.05 0.95 0.98 0.99 1.01
0.53 0.53 0.53 0.53 0.52 0.52 0.51 0.51 0.49 0.49 0.51 0.53 0.55 0.56 0.58 0.59 0.60 0.62 0.63 0.62 0.61 0.61 0.61 0.61 0.61 0.60 0.61 0.55 0.41 0.30 0.29 0.23 0.28 0.34 0.34 0.36 0.42 0.47 0.53 0.52 0.51 0.50 0.48 0.45 0.43 0.44 0.48 0.49 0.49 0.56 0.52 0.50 0.56 0.57 0.61 0.63 0.64 0.58 0.57 0.66 0.70 0.73 0.75 0.77 0.80 0.82 0.81 0.78 0.82 0.79 0.72 0.70 0.76 0.74 0.84 0.79 0.88 0.93 0.98 1.05 1.05 1.06 1.06 1.04 1.00 0.99 0.99 0.95
0.52 0.52 0.52 0.52 0.52 0.52 0.51 0.51 0.49 0.48 0.50 0.51 0.53 0.55 0.58 0.59 0.61 0.63 0.64 0.62 0.59 0.58 0.59 0.60 0.60 0.62 0.63 0.49 0.38 0.27 0.24 0.30 0.33 0.34 0.37 0.39 0.45 0.51 0.53 0.47 0.51 0.48 0.45 0.45 0.47 0.48 0.52 0.52 0.55 0.53 0.43 0.48 0.55 0.58 0.62 0.58 0.54 0.62 0.60 0.66 0.67 0.67 0.73 0.78 0.80 0.77 0.77 0.76 0.76 0.70 0.69 0.75 0.77 0.87 0.77 0.87 0.91 0.94 0.98 1.00 1.01 0.99 0.98 0.99 1.00 1.00 0.96 0.87
0.51 0.51 0.51 0.52 0.52 0.52 0.51 0.50 0.48 0.47 0.48 0.51 0.52 0.54 0.58 0.60 0.61 0.61 0.60 0.59 0.57 0.57 0.59 0.60 0.59 0.59 0.57 0.47 0.35 0.22 0.28 0.39 0.37 0.37 0.38 0.41 0.46 0.49 0.49 0.46 0.47 0.45 0.43 0.42 0.46 0.47 0.46 0.47 0.52 0.59 0.56 0.55 0.61 0.60 0.63 0.61 0.56 0.66 0.61 0.62 0.64 0.69 0.72 0.74 0.73 0.71 0.76 0.74 0.69 0.63 0.66 0.67 0.74 0.72 0.60 0.93 0.94 0.95 0.94 0.93 0.96 0.94 0.91 0.94 0.96 0.95 0.90 0.84
0.50 0.50 0.50 0.51 0.52 0.52 0.50 0.49 0.48 0.47 0.49 0.51 0.53 0.54 0.55 0.57 0.57 0.56 0.56 0.56 0.56 0.56 0.57 0.57 0.58 0.57 0.45 0.48 0.29 0.22 0.33 0.35 0.39 0.40 0.38 0.39 0.42 0.45 0.43 0.44 0.43 0.43 0.43 0.41 0.40 0.43 0.50 0.51 0.53 0.57 0.53 0.54 0.58 0.56 0.60 0.60 0.67 0.64 0.61 0.63 0.63 0.67 0.67 0.68 0.66 0.68 0.72 0.69 0.75 0.69 0.65 0.70 0.70 0.68 0.63 0.82 0.92 0.92 0.86 0.89 0.92 0.92 0.92 0.93 0.93 0.90 0.89 0.86
0.49 0.49 0.49 0.51 0.52 0.51 0.50 0.49 0.49 0.49 0.51 0.52 0.52 0.52 0.52 0.54 0.54 0.55 0.56 0.56 0.55 0.54 0.55 0.58 0.58 0.54 0.48 0.37 0.28 0.27 0.38 0.37 0.39 0.40 0.44 0.43 0.40 0.42 0.43 0.42 0.41 0.38 0.40 0.37 0.37 0.38 0.42 0.50 0.53 0.48 0.43 0.58 0.45 0.54 0.55 0.62 0.62 0.60 0.57 0.50 0.58 0.63 0.59 0.64 0.59 0.63 0.69 0.65 0.77 0.73 0.65 0.60 0.61 0.59 0.75 0.84 0.90 0.87 0.84 0.85 0.89 0.91 0.92 0.93 0.94 0.92 0.91 0.88
0.48 0.48 0.49 0.50 0.51 0.51 0.50 0.51 0.50 0.50 0.51 0.52 0.53 0.53 0.51 0.52 0.54 0.55 0.57 0.55 0.55 0.52 0.53 0.56 0.56 0.56 0.43 0.26 0.27 0.34 0.37 0.39 0.43 0.43 0.44 0.45 0.43 0.42 0.42 0.38 0.39 0.40 0.40 0.38 0.36 0.38 0.43 0.47 0.51 0.48 0.53 0.48 0.46 0.42 0.48 0.58 0.57 0.58 0.54 0.51 0.52 0.53 0.54 0.59 0.65 0.66 0.67 0.66 0.74 0.66 0.42 0.51 0.61 0.70 0.81 0.86 0.87 0.88 0.83 0.84 0.88 0.90 0.91 0.92 0.93 0.93 0.92 0.91
0.48 0.48 0.49 0.50 0.50 0.51 0.51 0.51 0.51 0.52 0.52 0.53 0.53 0.52 0.51 0.52 0.56 0.59 0.59 0.58 0.61 0.57 0.55 0.55 0.55 0.51 0.38 0.26 0.31 0.35 0.37 0.42 0.39 0.40 0.39 0.41 0.39 0.37 0.37 0.35 0.36 0.36 0.37 0.36 0.35 0.36 0.43 0.51 0.51 0.52 0.57 0.47 0.44 0.55 0.50 0.51 0.54 0.45 0.50 0.52 0.46 0.46 0.43 0.56 0.61 0.63 0.61 0.71 0.71 0.62 0.40 0.51 0.63 0.72 0.82 0.87 0.89 0.84 0.79 0.84 0.89 0.91 0.92 0.94 0.95 0.92 0.89 0.86
0.47 0.48 0.49 0.50 0.52 0.53 0.54 0.54 0.54 0.54 0.54 0.53 0.53 0.53 0.54 0.55 0.59 0.62 0.63 0.61 0.62 0.61 0.60 0.60 0.55 0.43 0.31 0.26 0.34 0.35 0.40 0.38 0.34 0.35 0.39 0.36 0.34 0.32 0.32 0.32 0.31 0.33 0.33 0.34 0.33 0.34 0.38 0.48 0.50 0.48 0.46 0.53 0.51 0.48 0.44 0.43 0.47 0.47 0.42 0.36 0.44 0.42 0.42 0.53 0.63 0.64 0.57 0.68 0.68 0.57 0.43 0.49 0.62 0.70 0.81 0.85 0.86 0.83 0.77 0.82 0.87 0.90 0.93 0.96 1.00 0.96 0.91 0.87
0.46 0.47 0.48 0.51 0.53 0.55 0.57 0.56 0.57 0.57 0.57 0.57 0.57 0.58 0.59 0.60 0.62 0.65 0.66 0.62 0.62 0.62 0.62 0.49 0.45 0.39 0.34 0.25 0.26 0.34 0.30 0.27 0.30 0.34 0.36 0.35 0.32 0.31 0.32 0.33 0.32 0.30 0.30 0.31 0.34 0.33 0.33 0.37 0.45 0.45 0.46 0.50 0.44 0.40 0.38 0.38 0.38 0.45 0.40 0.35 0.36 0.40 0.40 0.45 0.58 0.60 0.59 0.59 0.62 0.52 0.43 0.54 0.57 0.72 0.80 0.86 0.84 0.81 0.77 0.79 0.83 0.88 0.92 0.96 0.91 0.92 0.92 0.90
0.45 0.46 0.48 0.50 0.53 0.56 0.57 0.57 0.58 0.60 0.63 0.66 0.66 0.66 0.66 0.68 0.70 0.73 0.69 0.66 0.65 0.66 0.56 0.42 0.43 0.43 0.27 0.31 0.38 0.26 0.24 0.28 0.32 0.31 0.32 0.31 0.33 0.31 0.32 0.31 0.31 0.31 0.32 0.31 0.34 0.33 0.30 0.32 0.45 0.47 0.47 0.42 0.42 0.36 0.30 0.29 0.30 0.36 0.40 0.33 0.36 0.35 0.38 0.39 0.50 0.56 0.58 0.55 0.49 0.54 0.49 0.52 0.56 0.67 0.74 0.82 0.83 0.80 0.77 0.75 0.80 0.86 0.89 0.87 0.86 0.89 0.91 0.90
0.45 0.45 0.47 0.49 0.52 0.54 0.57 0.60 0.64 0.67 0.66 0.65 0.66 0.66 0.65 0.68 0.74 0.75 0.72 0.67 0.67 0.64 0.58 0.56 0.47 0.42 0.30 0.37 0.26 0.24 0.27 0.26 0.28 0.28 0.27 0.31 0.33 0.32 0.32 0.31 0.32 0.32 0.30 0.30 0.35 0.33 0.35 0.31 0.46 0.34 0.41 0.38 0.35 0.31 0.24 0.22 0.27 0.30 0.31 0.32 0.34 0.37 0.38 0.37 0.40 0.46 0.53 0.52 0.46 0.50 0.50 0.50 0.56 0.63 0.69 0.74 0.80 0.77 0.75 0.75 0.77 0.82 0.86 0.85 0.86 0.88 0.89 0.88
0.45 0.45 0.46 0.49 0.52 0.55 0.59 0.62 0.64 0.67 0.68 0.66 0.67 0.70 0.67 0.69 0.70 0.64 0.57 0.58 0.50 0.40 0.31 0.31 0.36 0.22 0.22 0.31 0.35 0.31 0.28 0.28 0.31 0.28 0.29 0.31 0.33 0.34 0.32 0.33 0.34 0.33 0.29 0.31 0.29 0.34 0.35 0.34 0.38 0.32 0.29 0.29 0.27 0.28 0.27 0.28 0.32 0.30 0.32 0.31 0.32 0.31 0.32 0.36 0.42 0.48 0.48 0.43 0.44 0.46 0.44 0.46 0.52 0.60 0.68 0.74 0.78 0.76 0.73 0.76 0.77 0.78 0.83 0.87 0.88 0.86 0.83 0.84
0.45 0.45 0.45 0.48 0.51 0.53 0.57 0.61 0.63 0.65 0.68 0.65 0.65 0.61 0.55 0.45 0.43 0.43 0.49 0.49 0.41 0.41 0.38 0.37 0.40 0.34 0.34 0.35 0.35 0.39 0.39 0.33 0.30 0.31 0.34 0.40 0.36 0.33 0.35 0.34 0.33 0.36 0.32 0.28 0.30 0.34 0.36 0.30 0.29 0.29 0.29 0.31 0.29 0.29 0.31 0.31 0.32 0.32 0.33 0.31 0.29 0.32 0.33 0.37 0.40 0.47 0.47 0.43 0.43 0.47 0.47 0.47 0.50 0.56 0.62 0.68 0.76 0.74 0.71 0.74 0.76 0.78 0.80 0.82 0.84 0.85 0.83 0.83
0.45 0.44 0.45 0.46 0.48 0.51 0.57 0.59 0.63 0.65 0.67 0.66 0.66 0.56 0.42 0.44 0.40 0.36 0.42 0.40 0.47 0.46 0.40 0.38 0.36 0.35 0.34 0.38 0.40 0.38 0.33 0.33 0.32 0.34 0.36 0.43 0.40 0.37 0.34 0.33 0.30 0.29 0.34 0.33 0.31 0.35 0.36 0.29 0.29 0.30 0.32 0.30 0.29 0.30 0.32 0.33 0.34 0.32 0.31 0.30 0.28 0.30 0.30 0.35 0.38 0.45 0.46 0.39 0.40 0.48 0.45 0.46 0.51 0.58 0.63 0.70 0.70 0.67 0.71 0.72 0.73 0.75 0.79 0.82 0.84 0.85 0.86 0.87
0.45 0.44 0.45 0.45 0.47 0.49 0.55 0.58 0.59 0.64 0.68 0.69 0.61 0.49 0.53 0.57 0.62 0.65 0.54 0.35 0.39 0.41 0.39 0.35 0.35 0.34 0.36 0.37 0.39 0.40 0.34 0.29 0.32 0.34 0.38 0.42 0.37 0.35 0.32 0.33 0.31 0.30 0.34 0.35 0.35 0.32 0.30 0.28 0.28 0.28 0.31 0.30 0.32 0.31 0.31 0.31 0.30 0.31 0.29 0.29 0.28 0.28 0.32 0.35 0.38 0.42 0.43 0.41 0.40 0.46 0.41 0.45 0.51 0.57 0.62 0.63 0.63 0.66 0.71 0.75 0.76 0.75 0.78 0.83 0.85 0.85 0.87 0.88
0.43 0.44 0.44 0.46 0.45 0.47 0.49 0.55 0.59 0.67 0.67 0.61 0.52 0.53 0.55 0.68 0.73 0.69 0.57 0.44 0.39 0.43 0.38 0.34 0.31 0.31 0.31 0.36 0.38 0.36 0.28 0.26 0.28 0.31 0.36 0.39 0.35 0.34 0.32 0.30 0.28 0.30 0.34 0.33 0.29 0.29 0.24 0.25 0.28 0.30 0.29 0.27 0.28 0.31 0.31 0.30 0.30 0.30 0.30 0.25 0.22 0.27 0.27 0.25 0.30 0.37 0.42 0.40 0.38 0.43 0.42 0.47 0.55 0.59 0.59 0.62 0.63 0.65 0.69 0.73 0.76 0.81 0.77 0.77 0.79 0.82 0.83 0.85
0.43 0.43 0.44 0.45 0.46 0.46 0.51 0.57 0.62 0.67 0.66 0.61 0.59 0.62 0.74 0.79 0.75 0.66 0.49 0.39 0.38 0.39 0.39 0.37 0.36 0.33 0.33 0.33 0.33 0.33 0.30 0.29 0.29 0.27 0.37 0.37 0.34 0.35 0.34 0.31 0.29 0.29 0.27 0.29 0.27 0.23 0.22 0.25 0.30 0.30 0.30 0.29 0.28 0.27 0.28 0.29 0.27 0.29 0.28 0.25 0.23 0.23 0.25 0.24 0.30 0.37 0.42 0.46 0.46 0.45 0.43 0.45 0.50 0.49 0.53 0.60 0.66 0.65 0.65 0.68 0.71 0.75 0.78 0.81 0.83 0.84 0.85 0.82
0.42 0.42 0.43 0.46 0.46 0.48 0.50 0.56 0.55 0.64 0.71 0.64 0.63 0.74 0.81 0.81 0.76 0.66 0.48 0.41 0.44 0.38 0.43 0.39 0.39 0.36 0.38 0.45 0.41 0.33 0.32 0.31 0.28 0.31 0.37 0.37 0.34 0.33 0.30 0.33 0.30 0.26 0.29 0.28 0.26 0.24 0.24 0.27 0.30 0.29 0.29 0.29 0.27 0.25 0.25 0.25 0.24 0.26 0.25 0.21 0.21 0.24 0.23 0.25 0.32 0.33 0.35 0.35 0.43 0.38 0.30 0.33 0.45 0.47 0.49 0.54 0.59 0.57 0.61 0.61 0.64 0.67 0.71 0.76 0.76 0.79 0.84 0.85
0.41 0.42 0.43 0.45 0.47 0.48 0.52 0.46 0.57 0.69 0.67 0.60 0.68 0.75 0.77 0.74 0.74 0.73 0.54 0.42 0.26 0.32 0.37 0.29 0.40 0.31 0.45 0.35 0.36 0.35 0.34 0.26 0.31 0.34 0.37 0.36 0.40 0.35 0.31 0.27 0.27 0.25 0.30 0.31 0.27 0.25 0.23 0.27 0.29 0.26 0.27 0.27 0.27 0.25 0.23 0.24 0.19 0.21 0.22 0.26 0.24 0.24 0.24 0.26 0.28 0.29 0.25 0.24 0.35 0.39 0.24 0.24 0.40 0.40 0.45 0.51 0.52 0.51 0.56 0.57 0.59 0.64 0.68 0.72 0.74 0.77 0.78 0.81
0.41 0.40 0.43 0.45 0.47 0.53 0.42 0.42 0.64 0.70 0.59 0.61 0.74 0.76 0.74 0.72 0.76 0.71 0.52 0.31 0.24 0.30 0.30 0.37 0.40 0.32 0.44 0.34 0.37 0.36 0.25 0.26 0.33 0.36 0.37 0.39 0.35 0.34 0.27 0.24 0.27 0.29 0.31 0.33 0.29 0.20 0.22 0.20 0.25 0.26 0.27 0.26 0.25 0.21 0.22 0.23 0.23 0.21 0.27 0.28 0.27 0.26 0.25 0.26 0.26 0.26 0.25 0.30 0.35 0.37 0.32 0.25 0.25 0.34 0.44 0.49 0.49 0.48 0.49 0.53 0.55 0.61 0.67 0.69 0.71 0.74 0.76 0.80
0.41 0.41 0.42 0.44 0.46 0.59 0.53 0.56 0.58 0.59 0.63 0.72 0.81 0.77 0.71 0.71 0.79 0.69 0.48 0.20 0.18 0.37 0.31 0.34 0.38 0.45 0.41 0.37 0.37 0.31 0.29 0.34 0.27 0.31 0.37 0.36 0.36 0.31 0.29 0.25 0.24 0.27 0.32 0.32 0.16 0.19 0.26 0.19 0.20 0.22 0.20 0.21 0.21 0.23 0.26 0.28 0.27 0.26 0.30 0.29 0.28 0.28 0.28 0.28 0.28 0.27 0.27 0.27 0.24 0.31 0.32 0.26 0.26 0.35 0.46 0.48 0.43 0.46 0.43 0.45 0.50 0.55 0.63 0.65 0.67 0.69 0.73 0.79
0.41 0.41 0.42 0.43 0.45 0.60 0.63 0.56 0.56 0.58 0.72 0.78 0.75 0.73 0.70 0.73 0.66 0.51 0.32 0.17 0.28 0.32 0.52 0.35 0.51 0.45 0.39 0.37 0.34 0.32 0.30 0.32 0.28 0.30 0.35 0.38 0.38 0.33 0.26 0.29 0.28 0.28 0.34 0.33 0.23 0.26 0.26 0.23 0.23 0.24 0.25 0.22 0.25 0.29 0.32 0.32 0.27 0.30 0.32 0.33 0.33 0.31 0.29 0.30 0.28 0.27 0.26 0.24 0.20 0.27 0.31 0.24 0.26 0.35 0.41 0.48 0.44 0.43 0.43 0.43 0.46 0.52 0.56 0.58 0.61 0.67 0.70 0.76
0.40 0.41 0.43 0.44 0.44 0.54 0.54 0.59 0.56 0.69 0.75 0.76 0.74 0.72 0.70 0.65 0.52 0.34 0.27 0.17 0.35 0.26 0.40 0.37 0.40 0.33 0.38 0.32 0.29 0.31 0.30 0.30 0.34 0.35 0.36 0.35 0.35 0.40 0.37 0.40 0.34 0.31 0.31 0.34 0.31 0.29 0.28 0.30 0.27 0.25 0.25 0.28 0.29 0.30 0.32 0.32 0.32 0.34 0.31 0.31 0.30 0.30 0.29 0.30 0.30 0.28 0.25 0.20 0.22 0.29 0.31 0.28 0.22 0.32 0.38 0.38 0.40 0.46 0.47 0.46 0.45 0.47 0.51 0.56 0.61 0.65 0.65 0.70
0.39 0.40 0.43 0.46 0.37 0.43 0.43 0.41 0.57 0.66 0.68 0.71 0.72 0.67 0.66 0.64 0.44 0.28 0.17 0.23 0.39 0.31 0.37 0.32 0.28 0.35 0.29 0.27 0.24 0.27 0.26 0.29 0.31 0.34 0.31 0.34 0.31 0.34 0.36 0.37 0.39 0.32 0.33 0.31 0.29 0.29 0.28 0.30 0.28 0.27 0.27 0.28 0.30 0.28 0.32 0.34 0.34 0.33 0.30 0.28 0.24 0.23 0.26 0.24 0.24 0.25 0.19 0.17 0.24 0.30 0.29 0.30 0.20 0.29 0.39 0.46 0.50 0.51 0.48 0.44 0.42 0.42 0.47 0.53 0.56 0.60 0.64 0.67
0.37 0.40 0.45 0.45 0.45 0.47 0.36 0.39 0.61 0.63 0.65 0.73 0.71 0.63 0.61 0.37 0.45 0.25 0.24 0.39 0.24 0.27 0.28 0.26 0.29 0.28 0.28 0.28 0.25 0.25 0.25 0.25 0.27 0.31 0.29 0.28 0.28 0.28 0.26 0.29 0.33 0.26 0.25 0.27 0.24 0.28 0.26 0.26 0.30 0.27 0.23 0.18 0.21 0.26 0.27 0.31 0.31 0.29 0.28 0.23 0.19 0.17 0.19 0.14 0.18 0.16 0.17 0.18 0.25 0.30 0.31 0.28 0.27 0.35 0.41 0.47 0.50 0.53 0.54 0.51 0.46 0.47 0.48 0.51 0.52 0.55 0.60 0.65
0.35 0.42 0.52 0.51 0.49 0.42 0.43 0.53 0.59 0.60 0.66 0.71 0.67 0.64 0.54 0.34 0.21 0.30 0.31 0.33 0.27 0.37 0.25 0.27 0.23 0.30 0.28 0.26 0.27 0.27 0.26 0.21 0.24 0.27 0.32 0.31 0.30 0.28 0.27 0.28 0.33 0.29 0.23 0.26 0.24 0.24 0.25 0.29 0.29 0.27 0.24 0.20 0.23 0.23 0.23 0.24 0.28 0.26 0.23 0.20 0.16 0.13 0.14 0.12 0.15 0.19 0.19 0.24 0.29 0.30 0.33 0.27 0.35 0.39 0.47 0.47 0.51 0.54 0.55 0.55 0.53 0.53 0.51 0.51 0.52 0.55 0.58 0.61
0.32 0.43 0.47 0.56 0.51 0.48 0.50 0.58 0.59 0.63 0.61 0.64 0.60 0.57 0.49 0.28 0.21 0.36 0.28 0.29 0.26 0.35 0.30 0.25 0.24 0.26 0.31 0.28 0.30 0.27 0.25 0.25 0.26 0.27 0.32 0.30 0.32 0.29 0.27 0.29 0.25 0.29 0.32 0.27 0.23 0.23 0.20 0.22 0.25 0.25 0.20 0.26 0.24 0.26 0.27 0.27 0.28 0.26 0.27 0.23 0.17 0.16 0.14 0.12 0.15 0.14 0.16 0.19 0.25 0.30 0.26 0.25 0.27 0.32 0.50 0.51 0.53 0.55 0.57 0.57 0.56 0.58 0.58 0.58 0.59 0.57 0.58 0.59
0.31 0.40 0.51 0.57 0.55 0.52 0.52 0.53 0.61 0.66 0.65 0.60 0.55 0.49 0.33 0.28 0.39 0.30 0.30 0.32 0.33 0.30 0.26 0.29 0.26 0.26 0.27 0.33 0.38 0.33 0.28 0.22 0.27 0.29 0.30 0.29 0.26 0.26 0.23 0.23 0.24 0.27 0.31 0.25 0.25 0.26 0.22 0.23 0.26 0.29 0.29 0.35 0.30 0.30 0.34 0.32 0.28 0.30 0.30 0.29 0.24 0.22 0.26 0.18 0.21 0.21 0.21 0.22 0.22 0.26 0.27 0.35 0.34 0.47 0.51 0.55 0.55 0.55 0.56 0.55 0.58 0.56 0.58 0.59 0.59 0.56 0.57 0.58
0.28 0.35 0.55 0.51 0.60 0.61 0.63 0.58 0.64 0.67 0.61 0.53 0.47 0.39 0.32 0.35 0.31 0.38 0.31 0.37 0.36 0.29 0.27 0.32 0.34 0.31 0.31 0.34 0.35 0.24 0.24 0.24 0.24 0.26 0.27 0.28 0.29 0.27 0.30 0.27 0.20 0.27 0.24 0.22 0.26 0.23 0.24 0.19 0.28 0.31 0.31 0.31 0.35 0.37 0.33 0.34 0.20 0.25 0.31 0.22 0.28 0.35 0.30 0.24 0.26 0.27 0.28 0.26 0.20 0.31 0.32 0.36 0.44 0.46 0.49 0.51 0.52 0.52 0.55 0.55 0.56 0.55 0.56 0.56 0.55 0.54 0.55 0.55
0.24 0.36 0.40 0.52 0.59 0.70 0.68 0.70 0.66 0.62 0.61 0.52 0.43 0.33 0.42 0.41 0.42 0.39 0.31 0.29 0.34 0.29 0.31 0.32 0.32 0.35 0.33 0.32 0.31 0.26 0.23 0.28 0.27 0.28 0.24 0.32 0.28 0.32 0.29 0.29 0.29 0.24 0.26 0.26 0.24 0.31 0.22 0.21 0.30 0.29 0.24 0.32 0.38 0.40 0.35 0.33 0.32 0.30 0.22 0.27 0.35 0.40 0.35 0.25 0.18 0.21 0.21 0.19 0.21 0.30 0.27 0.29 0.30 0.25 0.44 0.46 0.47 0.50 0.51 0.53 0.55 0.53 0.54 0.53 0.53 0.52 0.52 0.53
0.27 0.38 0.53 0.55 0.59 0.66 0.71 0.69 0.63 0.59 0.59 0.45 0.36 0.38 0.50 0.44 0.45 0.31 0.32 0.29 0.28 0.29 0.32 0.33 0.39 0.38 0.32 0.31 0.30 0.29 0.29 0.28 0.26 0.30 0.25 0.31 0.26 0.35 0.32 0.29 0.30 0.26 0.26 0.27 0.21 0.25 0.32 0.24 0.29 0.30 0.29 0.33 0.38 0.37 0.29 0.31 0.36 0.29 0.26 0.39 0.27 0.21 0.22 0.26 0.23 0.16 0.17 0.17 0.21 0.27 0.30 0.31 0.32 0.32 0.41 0.42 0.44 0.46 0.49 0.51 0.52 0.52 0.52 0.51 0.51 0.51 0.53 0.56
0.35 0.44 0.38 0.55 0.72 0.70 0.66 0.68 0.54 0.52 0.46 0.37 0.35 0.36 0.45 0.44 0.42 0.33 0.32 0.31 0.29 0.32 0.32 0.35 0.33 0.37 0.35 0.31 0.35 0.35 0.32 0.26 0.31 0.27 0.25 0.30 0.25 0.34 0.32 0.33 0.25 0.28 0.28 0.27 0.22 0.22 0.31 0.26 0.26 0.34 0.33 0.34 0.36 0.33 0.22 0.27 0.32 0.35 0.37 0.34 0.37 0.31 0.22 0.23 0.25 0.25 0.24 0.17 0.20 0.23 0.29 0.26 0.37 0.39 0.43 0.43 0.46 0.48 0.50 0.50 0.50 0.52 0.51 0.51 0.51 0.52 0.52 0.54
0.29 0.35 0.35 0.64 0.77 0.76 0.73 0.58 0.47 0.46 0.40 0.33 0.38 0.42 0.50 0.40 0.39 0.34 0.34 0.28 0.27 0.32 0.31 0.32 0.36 0.36 0.36 0.35 0.36 0.33 0.35 0.32 0.29 0.27 0.27 0.30 0.27 0.36 0.31 0.33 0.27 0.27 0.31 0.31 0.26 0.28 0.25 0.32 0.22 0.31 0.38 0.36 0.29 0.29 0.26 0.29 0.23 0.20 0.21 0.21 0.27 0.29 0.33 0.32 0.34 0.29 0.23 0.19 0.20 0.19 0.20 0.30 0.40 0.47 0.46 0.46 0.48 0.49 0.49 0.49 0.51 0.51 0.52 0.53 0.53 0.52 0.51 0.53
0.44 0.42 0.46 0.81 0.80 0.82 0.69 0.49 0.35 0.31 0.34 0.45 0.49 0.45 0.47 0.44 0.42 0.35 0.33 0.31 0.31 0.37 0.34 0.34 0.36 0.34 0.38 0.35 0.32 0.34 0.30 0.31 0.29 0.27 0.28 0.29 0.31 0.26 0.37 0.32 0.28 0.27 0.32 0.32 0.29 0.29 0.22 0.25 0.24 0.27 0.30 0.28 0.28 0.35 0.34 0.33 0.30 0.26 0.24 0.20 0.21 0.16 0.19 0.20 0.19 0.32 0.28 0.24 0.21 0.20 0.19 0.31 0.44 0.53 0.51 0.49 0.52 0.51 0.53 0.52 0.51 0.52 0.53 0.53 0.54 0.54 0.52 0.52
0.32 0.27 0.50 0.82 0.88 0.79 0.51 0.30 0.31 0.42 0.43 0.40 0.40 0.47 0.43 0.50 0.44 0.33 0.31 0.29 0.33 0.32 0.37 0.31 0.35 0.35 0.35 0.36 0.38 0.36 0.31 0.29 0.31 0.29 0.31 0.28 0.34 0.34 0.37 0.37 0.30 0.31 0.27 0.27 0.28 0.31 0.27 0.25 0.25 0.25 0.28 0.27 0.35 0.40 0.45 0.44 0.43 0.36 0.32 0.25 0.29 0.26 0.20 0.17 0.16 0.19 0.25 0.26 0.30 0.27 0.24 0.31 0.48 0.53 0.53 0.54 0.53 0.53 0.54 0.54 0.52 0.53 0.53 0.54 0.54 0.54 0.54 0.54
0.34 0.32 0.73 0.76 0.85 0.71 0.42 0.26 0.29 0.32 0.40 0.45 0.51 0.47 0.47 0.44 0.38 0.32 0.29 0.27 0.25 0.31 0.31 0.31 0.32 0.31 0.36 0.32 0.34 0.35 0.35 0.28 0.32 0.27 0.30 0.31 0.31 0.33 0.35 0.31 0.30 0.33 0.32 0.29 0.33 0.32 0.34 0.24 0.23 0.25 0.31 0.36 0.43 0.47 0.46 0.49 0.46 0.40 0.39 0.39 0.34 0.25 0.22 0.18 0.18 0.21 0.18 0.25 0.23 0.24 0.23 0.31 0.46 0.52 0.54 0.54 0.54 0.55 0.56 0.55 0.52 0.51 0.52 0.52 0.53 0.53 0.52 0.53
0.41 0.39 0.58 0.84 0.88 0.69 0.40 0.21 0.18 0.27 0.36 0.43 0.45 0.44 0.45 0.43 0.35 0.31 0.28 0.28 0.27 0.29 0.28 0.31 0.34 0.38 0.33 0.36 0.32 0.27 0.35 0.25 0.34 0.31 0.30 0.33 0.30 0.36 0.33 0.30 0.29 0.30 0.28 0.31 0.27 0.31 0.21 0.22 0.23 0.21 0.22 0.26 0.32 0.39 0.39 0.45 0.44 0.37 0.35 0.37 0.37 0.35 0.30 0.28 0.28 0.30 0.20 0.25 0.25 0.21 0.17 0.29 0.42 0.51 0.52 0.52 0.53 0.53 0.52 0.54 0.53 0.50 0.51 0.51 0.53 0.53 0.54 0.55
0.50 0.49 0.56 0.65 0.83 0.64 0.36 0.35 0.28 0.30 0.32 0.38 0.43 0.40 0.40 0.40 0.37 0.31 0.32 0.32 0.35 0.34 0.33 0.33 0.35 0.36 0.35 0.38 0.31 0.29 0.31 0.30 0.32 0.35 0.34 0.33 0.31 0.35 0.34 0.30 0.28 0.26 0.30 0.32 0.35 0.36 0.25 0.25 0.21 0.18 0.17 0.14 0.14 0.18 0.23 0.27 0.29 0.34 0.38 0.35 0.35 0.30 0.26 0.22 0.18 0.22 0.18 0.25 0.26 0.22 0.22 0.33 0.38 0.44 0.47 0.49 0.50 0.50 0.52 0.52 0.53 0.52 0.51 0.53 0.55 0.55 0.55 0.57
0.46 0.30 0.44 0.54 0.63 0.60 0.52 0.52 0.39 0.33 0.34 0.39 0.37 0.40 0.42 0.39 0.40 0.36 0.33 0.34 0.37 0.36 0.34 0.35 0.39 0.39 0.35 0.35 0.31 0.27 0.27 0.32 0.34 0.33 0.32 0.29 0.29 0.32 0.35 0.36 0.34 0.31 0.27 0.26 0.26 0.32 0.24 0.26 0.27 0.26 0.26 0.24 0.27 0.30 0.36 0.34 0.29 0.24 0.28 0.30 0.29 0.32 0.32 0.27 0.24 0.19 0.16 0.22 0.19 0.21 0.24 0.26 0.26 0.34 0.37 0.43 0.45 0.45 0.47 0.49 0.50 0.51 0.54 0.57 0.58 0.56 0.57 0.57
0.61 0.46 0.43 0.41 0.51 0.55 0.55 0.53 0.43 0.40 0.37 0.40 0.33 0.40 0.37 0.39 0.43 0.40 0.36 0.31 0.36 0.36 0.34 0.34 0.35 0.30 0.34 0.32 0.29 0.26 0.27 0.27 0.34 0.33 0.30 0.30 0.31 0.32 0.38 0.36 0.36 0.32 0.33 0.27 0.23 0.26 0.25 0.20 0.26 0.29 0.28 0.28 0.33 0.31 0.33 0.30 0.23 0.23 0.23 0.25 0.29 0.30 0.31 0.27 0.21 0.17 0.24 0.18 0.13 0.23 0.30 0.23 0.20 0.29 0.36 0.38 0.42 0.44 0.46 0.48 0.50 0.52 0.54 0.55 0.55 0.55 0.57 0.58
0.45 0.57 0.64 0.68 0.48 0.43 0.42 0.42 0.44 0.43 0.49 0.49 0.41 0.42 0.37 0.37 0.38 0.35 0.37 0.35 0.35 0.37 0.31 0.33 0.33 0.33 0.32 0.31 0.31 0.26 0.27 0.28 0.28 0.25 0.30 0.31 0.30 0.35 0.36 0.39 0.34 0.36 0.36 0.32 0.31 0.26 0.23 0.22 0.29 0.28 0.27 0.30 0.32 0.31 0.30 0.28 0.28 0.28 0.27 0.26 0.26 0.30 0.30 0.26 0.25 0.27 0.25 0.17 0.14 0.21 0.25 0.21 0.25 0.32 0.36 0.39 0.40 0.42 0.46 0.47 0.51 0.54 0.54 0.54 0.53 0.53 0.55 0.56
0.67 0.68 0.65 0.77 0.53 0.57 0.52 0.51 0.46 0.44 0.43 0.45 0.43 0.42 0.39 0.37 0.36 0.41 0.38 0.37 0.36 0.35 0.33 0.25 0.28 0.33 0.34 0.36 0.31 0.28 0.31 0.25 0.25 0.29 0.28 0.32 0.32 0.33 0.31 0.33 0.36 0.43 0.36 0.35 0.35 0.33 0.28 0.28 0.34 0.33 0.29 0.28 0.28 0.29 0.30 0.28 0.30 0.30 0.30 0.28 0.28 0.29 0.29 0.30 0.29 0.30 0.28 0.23 0.23 0.22 0.24 0.22 0.27 0.32 0.36 0.40 0.43 0.45 0.47 0.50 0.53 0.51 0.49 0.50 0.51 0.52 0.53 0.54
0.55 0.52 0.55 0.67 0.64 0.60 0.57 0.54 0.48 0.43 0.38 0.44 0.35 0.42 0.41 0.38 0.35 0.38 0.42 0.38 0.35 0.37 0.40 0.34 0.33 0.32 0.34 0.34 0.33 0.29 0.33 0.32 0.32 0.27 0.34 0.33 0.36 0.38 0.33 0.32 0.34 0.41 0.40 0.35 0.37 0.35 0.26 0.29 0.35 0.30 0.24 0.25 0.28 0.30 0.30 0.30 0.30 0.28 0.31 0.32 0.31 0.32 0.32 0.32 0.31 0.31 0.30 0.28 0.28 0.26 0.23 0.20 0.29 0.38 0.38 0.43 0.45 0.47 0.45 0.46 0.47 0.45 0.48 0.49 0.50 0.51 0.52 0.53
0.74 0.79 0.75 0.57 0.50 0.57 0.58 0.55 0.49 0.45 0.37 0.40 0.34 0.41 0.40 0.40 0.37 0.43 0.43 0.48 0.43 0.41 0.42 0.39 0.40 0.35 0.35 0.33 0.33 0.32 0.39 0.38 0.39 0.37 0.38 0.37 0.33 0.41 0.32 0.35 0.41 0.37 0.39 0.39 0.39 0.37 0.29 0.31 0.33 0.29 0.23 0.23 0.30 0.32 0.33 0.33 0.32 0.30 0.30 0.32 0.32 0.31 0.28 0.30 0.26 0.31 0.26 0.23 0.23 0.23 0.20 0.19 0.25 0.31 0.38 0.41 0.44 0.42 0.41 0.42 0.43 0.43 0.46 0.47 0.47 0.49 0.51 0.53
0.72 0.83 0.79 0.63 0.47 0.58 0.52 0.53 0.51 0.47 0.39 0.45 0.44 0.46 0.44 0.44 0.44 0.44 0.39 0.50 0.52 0.50 0.48 0.46 0.43 0.36 0.37 0.34 0.34 0.37 0.43 0.46 0.46 0.48 0.47 0.45 0.45 0.44 0.42 0.41 0.42 0.40 0.38 0.37 0.43 0.34 0.33 0.27 0.23 0.27 0.23 0.23 0.30 0.33 0.32 0.32 0.29 0.24 0.27 0.30 0.32 0.33 0.32 0.34 0.35 0.34 0.30 0.27 0.21 0.19 0.20 0.24 0.30 0.35 0.35 0.41 0.43 0.42 0.41 0.41 0.42 0.43 0.45 0.46 0.46 0.48 0.51 0.54
Wind_Speed
19 18 16 15 14 14 14 14 14 14 14 15 15 16 16 16 16 16 16 15 15 15 14 13 13 12 11 11 10 9 8 8 7 7 8 9 9 10 11 12 13 15 16 16 15 14 12 10 7 5 4 3 3 3 2 3 3 1 1 3 3 2 4 4 7 8 8 8 7 6 6 7 5 3 4 3 4 4 5 5 4 5 5 6 8 9 8 9
19 18 16 15 14 14 15 15 14 14 14 14 15 15 15 15 15 15 15 15 15 15 14 13 13 12 11 11 10 9 9 9 8 8 9 10 11 12 13 14 15 16 17 16 14 12 10 8 6 5 4 4 3 3 4 4 2 1 1 2 4 6 7 8 10 9 8 8 7 7 7 7 5 4 4 3 3 4 6 5 5 7 7 8 8 9 9 9
20 18 16 15 14 14 15 15 14 14 14 14 14 15 15 15 15 15 14 14 14 14 13 12 12 11 11 10 10 10 10 10 10 10 10 12 13 14 15 16 17 17 16 14 12 10 8 5 3 2 3 3 3 3 5 3 3 2 3 6 8 9 8 8 9 8 7 8 8 8 7 6 5 4 4 4 3 4 4 4 6 7 8 8 8 9 9 9
19 18 17 15 14 14 15 14 14 14 13 13 13 14 14 14 14 14 14 14 13 13 12 12 11 10 10 10 10 10 11 11 11 11 12 14 16 16 17 18 18 16 13 11 9 8 6 3 3 1 3 4 5 5 4 3 4 4 7 8 8 9 8 6 7 7 7 9 9 8 7 6 5 5 5 6 5 3 2 4 6 8 9 9 8 8 9 9
19 19 18 16 15 14 15 14 13 13 13 13 13 13 13 14 14 14 14 14 13 13 12 11 11 10 10 10 10 10 11 12 12 12 14 16 17 17 18 18 16 14 12 10 8 7 6 4 4 6 7 7 8 6 5 5 5 7 8 8 8 9 6 6 9 8 8 9 10 8 7 6 6 5 5 6 5 2 3 4 7 9 9 9 9 8 8 8
19 19 18 17 16 15 14 14 13 13 13 12 12 13 13 13 14 14 13 13 13 13 12 11 11 11 11 11 11 11 12 12 11 13 15 16 17 18 18 16 15 13 10 8 7 7 7 6 8 9 9 9 9 7 7 8 8 9 9 9 10 10 7 7 10 9 9 10 10 8 7 7 7 6 4 5 4 4 5 6 7 8 8 9 8 7 7 7
19 19 19 18 17 15 14 14 13 12 12 12 12 12 13 13 13 13 13 13 13 12 12 12 12 12 11 11 12 12 13 12 12 13 15 16 17 17 16 15 12 10 9 7 7 7 7 7 8 8 8 8 8 7 8 10 10 10 9 10 11 10 10 9 10 10 10 10 9 8 8 8 8 7 5 6 5 5 6 7 7 7 8 7 7 6 6 6
18 19 18 18 18 17 15 14 13 12 12 12 12 12 12 13 12 12 12 12 12 12 12 12 12 12 12 12 13 13 13 13 13 14 15 16 16 16 14 13 11 9 7 6 7 8 8 8 7 8 9 8 8 7 7 9 9 8 8 9 10 9 10 10 10 11 11 10 9 9 9 9 9 8 6 6 6 6 6 7 7 7 7 6 6 6 5 5
18 18 18 19 18 18 16 15 13 12 12 12 12 12 12 12 12 12 12 12 12 13 12 12 12 12 13 13 14 14 13 14 15 15 16 16 15 15 13 11 9 8 6 6 8 9 9 9 7 8 10 9 9 7 6 8 7 7 8 9 9 8 8 9 8 10 9 8 9 10 8 9 10 8 7 5 6 6 6 6 6 6 6 6 5 5 5 5
17 17 18 18 18 18 17 16 14 13 12 12 12 12 12 12 12 12 12 12 12 12 12 13 13 13 13 13 14 14 13 14 15 15 15 15 15 14 11 9 8 8 6 6 8 8 7 9 10 10 11 10 10 8 6 7 6 6 7 7 8 8 7 7 6 7 7 6 9 9 7 7 7 6 5 4 5 5 5 5 5 5 5 5 4 5 5 5
17 17 17 18 18 18 18 17 16 14 13 12 12 11 12 12 12 12 12 12 12 13 13 13 13 13 13 12 13 14 13 14 14 15 15 15 13 11 9 8 7 7 6 5 6 7 6 7 9 9 9 10 11 9 7 6 5 6 7 6 6 8 6 6 5 5 5 5 7 8 7 6 7 7 5 4 5 5 5 5 4 4 4 4 4 4 4 5
16 16 17 17 18 18 18 18 17 15 14 13 12 12 11 12 12 12 12 12 12 13 13 13 13 12 12 13 13 13 13 13 13 13 13 12 11 9 8 7 6 5 5 5 5 6 6 6 6 7 8 9 10 10 8 7 7 6 6 6 5 7 5 4 5 5 4 4 6 8 7 7 7 6 5 4 4 4 4 4 3 2 3 3 4 4 4 4
14 15 16 17 18 18 18 18 17 17 16 14 13 12 11 11 11 11 11 12 12 12 12 13 13 12 12 12 12 12 12 12 11 11 10 9 8 8 7 5 5 5 6 6 5 7 8 7 8 9 9 9 8 8 9 9 9 7 6 6 6 6 4 3 4 4 4 4 5 5 6 5 6 5 4 3 4 3 3 2 1 1 2 3 4 4 4 5
13 14 15 16 17 18 18 18 18 18 17 15 14 12 11 11 10 10 10 10 10 11 11 12 12 12 12 11 11 11 12 11 10 10 9 8 7 6 5 4 4 6 7 7 6 7 9 9 10 9 7 8 8 8 9 9 9 8 7 7 6 5 2 1 3 4 3 3 4 5 5 4 5 3 2 2 3 3 1 1 1 1 2 3 3 4 5 6
12 13 14 15 16 18 18 18 18 18 18 16 15 13 12 11 10 9 9 9 9 9 10 10 11 11 11 9 10 10 9 9 8 8 8 7 7 5 5 5 6 6 7 7 6 7 7 8 8 6 5 6 8 8 7 7 7 7 7 6 5 4 1 1 2 4 3 1 2 5 5 4 5 3 1 1 2 1 0 1 2 2 2 2 4 5 5 6
11 11 12 14 15 16 17 18 18 18 17 16 15 13 12 11 11 10 9 8 9 8 8 9 9 10 10 9 8 8 7 7 7 7 7 6 7 7 6 7 7 5 5 5 5 5 5 5 6 6 6 6 7 7 6 6 5 5 6 5 4 4 3 2 1 3 2 1 1 4 4 5 6 3 1 0 1 0 1 2 3 2 2 3 5 6 6 6
10 10 11 12 13 14 15 16 16 16 16 16 15 14 13 12 11 11 10 10 10 9 9 8 8 10 10 9 9 9 8 8 8 7 7 6 7 7 7 6 4 2 2 3 5 4 4 5 5 5 5 5 6 6 6 5 3 3 5 5 4 4 3 3 2 1 2 0 3 5 3 4 5 3 1 2 2 2 2 3 3 3 4 5 6 7 7 7
9 9 9 10 11 12 14 14 15 15 15 15 15 13 13 13 13 13 13 12 11 10 10 10 10 10 10 10 10 10 10 10 9 8 7 7 6 5 5 4 2 1 2 3 5 6 5 5 5 3 4 5 5 5 6 4 3 3 3 4 3 3 3 2 2 1 1 1 3 4 4 4 5 3 2 2 2 3 3 4 4 4 5 6 7 7 7 8
8 8 8 9 10 11 12 13 13 14 14 15 15 14 14 15 16 16 15 14 13 13 12 10 11 11 10 9 9 9 10 10 9 8 7 6 5 4 4 2 2 3 4 3 4 5 4 3 3 3 3 4 4 3 3 2 4 4 3 4 4 3 2 1 1 1 3 3 3 3 4 4 4 3 2 3 3 4 4 5 5 5 6 7 7 8 8 9
7 6 6 7 8 9 11 12 12 12 13 14 15 16 16 16 16 15 15 15 14 14 12 9 9 9 9 9 8 8 8 7 7 7 6 6 4 3 4 3 4 5 4 3 2 3 3 3 2 1 2 3 4 3 3 3 4 4 4 4 3 3 2 0 1 2 3 4 3 3 4 4 4 3 3 3 4 5 5 5 6 6 7 7 8 9 10 10
7 6 5 5 6 7 9 10 11 11 12 13 14 15 15 15 14 13 14 14 13 14 13 10 10 10 10 10 9 9 8 7 6 6 6 6 5 4 4 5 6 5 3 2 2 2 3 4 2 1 2 3 5 3 4 4 4 3 3 3 2 2 2 1 1 1 2 4 3 3 4 4 4 4 4 4 4 6 5 5 6 7 8 8 9 10 11 11
7 6 5 4 4 5 6 8 9 10 11 12 13 14 14 14 13 13 13 13 12 14 13 12 12 12 11 11 11 11 11 11 9 8 7 7 7 6 6 7 6 4 3 4 5 4 5 4 1 2 2 3 4 4 4 4 3 2 2 3 3 2 2 3 1 1 1 3 2 3 4 4 5 5 5 5 5 6 5 4 5 5 7 9 10 11 11 11
7 6 5 4 4 4 4 6 7 8 10 10 11 12 13 13 12 12 13 12 11 12 13 13 13 12 12 12 12 12 13 11 9 9 9 10 10 9 9 9 8 7 6 7 7 7 7 4 1 3 3 2 3 4 6 5 3 3 3 3 3 3 2 3 2 1 2 3 3 3 5 6 6 6 5 5 5 6 6 5 4 3 5 7 8 9 9 10
6 6 4 4 3 3 3 5 5 7 8 9 10 12 12 11 11 12 13 12 11 11 11 12 12 12 11 11 11 13 13 11 10 9 10 11 11 10 10 11 11 10 9 9 10 9 8 5 4 7 7 6 5 5 6 5 4 3 3 3 3 2 2 2 1 3 4 5 4 6 6 6 6 5 5 6 7 8 7 6 5 5 6 6 6 7 8 9
6 5 4 3 3 2 3 3 5 6 7 8 9 10 10 10 10 11 11 11 11 11 11 12 11 11 11 11 11 11 12 12 11 10 10 11 11 11 10 10 11 11 10 10 11 10 8 6 7 10 9 8 7 7 6 7 5 4 3 3 3 3 4 5 5 5 6 5 2 5 6 5 5 5 5 7 8 8 9 7 6 7 7 6 6 6 7 8
6 5 4 3 2 3 1 2 4 5 5 7 7 8 9 9 9 10 10 10 10 10 11 11 11 10 10 11 10 10 12 11 10 10 11 11 11 11 10 10 11 11 10 9 9 8 8 7 8 9 9 8 8 8 7 8 8 6 5 5 6 6 7 7 7 6 5 4 1 3 6 4 5 6 5 6 8 9 10 10 8 8 7 6 5 6 7 8
6 5 4 3 2 2 1 2 3 4 4 4 5 7 7 7 8 8 9 10 9 8 9 10 10 10 9 10 10 11 11 10 10 11 12 12 11 11 12 11 11 11 10 11 10 9 9 9 8 8 8 8 9 8 7 8 9 6 4 6 7 6 6 7 7 6 5 5 5 5 6 6 6 5 5 6 8 9 11 11 11 9 7 6 6 7 8 8
6 5 3 2 2 1 2 2 3 3 3 3 4 5 6 6 7 7 8 9 7 7 8 8 9 9 8 9 11 11 10 10 11 10 10 11 11 11 11 10 10 10 11 13 11 9 11 12 10 10 10 9 8 7 6 8 8 5 4 5 5 4 6 7 7 7 6 7 6 4 6 8 6 6 7 8 9 9 11 12 12 9 7 7 7 8 9 8
5 4 3 2 1 1 2 2 2 2 1 2 4 4 5 5 6 6 7 7 6 6 7 7 8 7 6 8 9 9 9 10 10 8 9 11 10 10 10 8 8 9 11 12 11 10 11 12 12 12 11 9 7 6 6 8 7 4 5 5 5 6 7 7 7 7 8 8 5 3 6 8 6 6 8 9 9 9 10 11 12 10 9 8 8 9 9 9
5 4 3 2 1 2 2 1 1 1 1 2 3 4 4 5 5 6 6 5 5 5 6 6 6 6 6 7 7 7 8 8 8 8 8 9 10 10 8 8 9 9 9 11 10 10 11 11 12 12 10 8 7 7 8 9 6 6 7 7 7 8 8 8 7 8 8 7 5 4 6 8 6 6 7 8 8 8 9 11 12 12 10 9 9 10 10 9
5 4 3 1 2 3 2 2 1 1 1 2 3 4 4 4 5 5 4 3 4 4 5 6 5 6 7 8 6 6 7 7 7 7 7 7 9 10 8 8 9 9 9 9 9 9 10 10 11 11 10 9 8 8 9 8 7 8 9 8 8 7 8 8 7 8 8 7 5 5 8 9 7 6 6 7 8 8 8 10 11 11 10 10 10 10 10 10
5 4 3 2 3 3 3 3 1 1 1 2 3 3 4 4 4 3 2 2 3 3 4 4 4 5 6 7 6 5 6 6 6 7 7 6 8 9 8 7 7 8 8 7 7 8 8 8 8 9 10 10 9 7 7 7 8 9 9 9 9 7 7 7 6 6 6 6 5 5 8 9 7 6 6 7 8 8 8 9 10 11 11 10 10 10 11 11
6 4 3 3 4 4 4 3 2 0 1 1 2 3 4 5 4 3 3 2 2 2 3 3 4 5 6 7 5 4 5 5 6 6 5 6 7 8 8 7 6 7 7 6 7 7 6 7 8 9 10 10 9 8 7 6 7 8 8 9 8 7 7 6 5 5 5 5 5 5 7 7 7 7 7 6 7 7 8 9 10 11 11 11 10 11 11 12
6 5 3 4 5 5 5 4 2 1 0 1 2 3 4 4 3 3 3 2 2 2 2 2 3 4 4 5 4 4 5 4 4 5 4 5 6 6 6 6 6 6 6 6 7 6 6 5 6 7 7 8 9 8 7 7 7 7 7 8 8 7 6 5 4 5 5 4 5 6 6 6 5 6 8 7 7 8 9 9 10 12 12 11 11 12 12 13
6 5 5 4 4 5 6 5 3 2 2 2 2 3 3 2 1 2 1 1 1 1 1 2 3 3 3 3 3 3 3 2 3 5 4 4 5 5 5 5 5 5 5 5 5 5 6 4 3 5 6 8 8 6 6 7 7 6 6 8 7 6 6 5 4 5 4 5 6 6 6 5 5 7 9 9 10 10 9 10 11 13 12 11 11 12 13 13
5 5 5 4 4 5 5 5 4 3 3 2 2 1 1 1 1 1 0 1 1 1 2 2 3 3 2 2 3 3 3 3 3 4 4 3 4 4 4 4 4 4 4 4 3 4 5 4 3 4 6 6 6 6 7 7 6 5 7 6 4 5 6 5 4 5 7 7 6 6 6 6 7 8 9 10 11 11 10 11 12 12 11 10 11 12 13 13
5 5 6 5 5 6 5 5 5 4 3 3 2 2 1 1 1 1 1 1 1 2 3 2 1 2 1 1 1 2 3 3 3 3 2 2 3 4 4 4 4 4 4 4 3 3 4 3 3 4 4 4 5 7 8 7 6 6 6 4 3 5 6 5 4 5 7 6 5 6 6 6 7 7 9 10 10 10 11 11 11 11 11 10 11 12 12 13
7 6 7 7 6 6 6 5 5 5 4 3 3 2 2 1 2 2 1 1 0 2 2 1 0 1 1 1 0 1 2 2 2 2 2 2 3 3 3 3 4 3 3 4 3 2 4 3 3 3 3 3 5 7 7 7 6 5 4 4 4 5 4 5 4 4 5 5 4 6 6 6 5 6 8 9 8 8 10 11 11 11 11 11 11 12 12 13
8 7 7 7 7 6 6 6 5 5 4 3 3 3 1 2 3 3 2 2 1 2 2 1 1 1 0 1 0 1 0 0 1 1 1 1 1 1 2 3 2 4 4 4 3 2 3 3 2 3 3 3 5 5 5 6 6 5 4 5 5 4 3 4 4 3 3 3 3 5 6 6 5 6 6 7 7 7 9 10 11 11 12 12 11 12 13 13
9 8 8 8 8 8 7 6 6 6 6 5 5 4 2 2 3 4 2 2 3 3 2 2 1 0 1 1 1 1 1 0 0 1 0 0 1 1 2 2 2 3 4 5 3 2 3 3 1 3 4 3 3 4 3 3 5 5 5 5 5 4 4 4 4 4 3 3 3 4 5 5 6 6 5 6 7 7 8 9 10 11 11 12 12 12 13 13
9 9 9 9 9 9 7 7 7 7 7 7 6 5 4 3 4 4 3 2 3 4 3 2 2 1 1 2 2 2 1 1 1 1 1 0 1 1 2 2 1 1 3 4 3 2 2 2 2 3 3 3 2 3 2 3 3 4 4 4 4 5 4 3 4 4 4 3 3 3 3 5 6 6 6 6 7 7 8 9 10 10 11 12 12 12 13 13
10 10 11 10 9 9 8 8 9 8 8 8 7 7 6 5 6 5 4 2 3 4 3 3 3 3 3 3 3 2 1 2 2 1 1 1 1 1 2 2 2 1 1 2 2 1 1 1 2 3 2 1 2 4 4 4 4 4 4 4 4 5 5 3 2 4 4 5 4 3 4 5 6 7 7 7 7 7 8 9 10 11 11 12 12 12 12 12
11 12 12 11 11 10 8 8 9 8 9 9 8 8 8 7 6 6 4 3 3 4 3 3 3 3 3 4 3 3 2 2 2 1 1 1 1 2 2 2 2 1 0 1 2 1 1 1 2 2 2 1 3 5 5 5 5 4 4 4 4 5 4 2 2 3 4 5 5 5 5 5 7 9 8 7 7 7 8 9 10 11 11 11 11 11 12 12
12 13 13 12 11 10 9 10 10 10 10 9 8 9 9 8 7 6 5 4 4 4 4 4 4 4 4 3 2 3 4 3 2 2 2 1 2 2 1 2 1 1 1 2 1 1 1 1 1 2 3 3 4 5 5 5 5 4 4 5 4 5 5 4 4 4 4 4 4 5 5 5 7 9 9 7 7 8 9 9 9 10 11 10 10 11 12 13
13 14 14 13 12 11 11 11 12 11 11 10 9 9 9 8 8 7 6 6 5 4 4 5 4 4 4 3 3 3 4 4 4 3 2 2 2 2 1 1 1 1 2 3 3 1 1 1 1 1 1 2 3 3 4 4 4 4 5 5 5 5 5 4 4 4 4 4 4 4 4 6 8 10 10 9 8 9 9 9 10 10 10 10 10 11 12 12
14 14 15 13 12 11 12 12 11 12 12 11 10 10 9 8 9 8 7 7 6 5 4 4 4 4 4 3 3 4 4 5 5 4 3 3 3 3 2 1 2 1 2 3 2 2 2 2 2 1 1 2 3 4 4 3 4 5 5 5 5 4 4 4 4 4 3 4 6 5 5 7 9 9 9 9 9 9 9 10 10 10 10 10 11 12 11 11
15 15 15 14 13 12 12 12 10 11 13 12 11 11 10 9 9 8 8 8 8 7 6 6 6 5 5 5 4 5 5 5 5 5 4 4 4 4 4 3 3 2 2 2 3 3 2 4 4 3 3 4 4 5 5 4 4 4 4 5 5 4 4 4 4 4 3 4 6 6 5 6 7 7 8 8 8 9 10 10 9 9 10 10 12 12 11 11
16 16 15 14 14 14 13 13 12 12 14 13 12 12 10 10 10 9 10 10 9 9 8 8 8 8 8 7 5 6 6 5 6 7 6 5 4 4 5 5 5 4 3 3 4 3 2 4 5 4 5 6 6 6 6 4 4 4 4 4 5 4 3 3 4 4 3 4 5 5 5 5 6 7 7 8 8 8 9 9 8 9 10 11 12 12 11 11
16 16 15 14 15 15 15 15 14 14 14 14 13 12 12 12 12 12 11 10 10 10 9 10 11 10 10 8 7 7 8 7 7 8 7 6 6 5 5 6 6 5 4 4 5 4 3 5 6 5 6 8 8 7 7 6 5 6 6 5 5 4 4 4 5 5 3 4 5 5 5 6 6 7 7 8 8 7 8 8 8 9 10 10 10 11 11 11
17 17 17 16 15 16 15 15 14 14 14 14 14 14 13 13 13 13 12 11 11 12 10 11 12 12 11 10 8 9 10 9 9 9 9 7 7 7 6 7 7 6 6 5 6 5 5 6 7 5 6 8 8 8 8 7 7 7 8 8 5 4 5 5 5 5 5 6 6 5 6 7 7 7 7 9 8 7 7 8 8 8 8 8 9 10 11 11
18 19 18 17 17 16 15 15 14 13 14 14 14 14 14 14 14 13 13 13 13 13 12 12 13 11 11 11 11 11 12 11 10 10 10 9 9 8 8 7 7 6 7 7 7 6 6 7 7 6 6 8 8 8 10 9 7 9 10 9 6 4 5 5 5 5 5 5 6 6 6 7 7 7 8 8 8 7 7 8 8 8 8 8 9 10 11 12
19 19 19 18 19 17 16 15 15 14 15 15 15 15 15 15 14 13 13 14 14 14 14 13 12 10 10 11 12 13 13 12 12 11 9 9 10 10 9 9 8 8 8 8 8 8 7 7 7 7 7 9 9 9 9 7 6 9 9 7 6 5 5 6 6 7 5 4 4 5 6 6 6 6 7 8 8 8 8 8 8 9 9 9 10 10 11 12
Wind_Direction
24 26 28 31 32 30 30 30 33 36 41 45 48 50 52 54 56 58 60 63 65 68 72 75 78 81 86 89 91 92 95 105 111 115 122 125 126 127 127 126 126 127 125 121 121 120 117 116 113 109 107 117 147 167 137 134 152 145 283 327 334 192 164 149 157 156 147 145 147 135 111 99 98 90 85 72 67 74 68 65 87 99 107 124 133 139 139 141
26 28 30 33 34 33 32 33 36 40 44 49 52 53 55 56 59 61 64 66 68 70 72 75 77 79 82 84 86 87 93 104 106 113 123 124 122 125 127 127 127 128 124 120 119 115 112 109 98 85 88 110 139 135 115 108 84 8 318 42 98 130 127 123 133 139 140 139 134 121 111 100 97 92 80 66 56 72 71 68 95 106 113 124 130 135 136 138
28 30 32 35 36 35 34 36 40 44 48 53 55 55 57 59 61 64 65 67 69 70 71 73 74 76 77 79 83 85 92 100 103 110 116 121 124 125 126 127 127 126 122 118 113 109 107 93 64 60 84 113 141 126 115 87 38 32 86 99 117 122 118 127 131 128 127 123 115 113 108 92 89 79 64 73 67 67 81 89 105 119 130 134 136 138 139 140
30 32 34 36 37 36 36 38 43 47 51 54 56 57 59 61 63 65 66 67 67 68 70 71 71 74 74 78 85 87 92 96 102 109 113 120 124 126 127 126 124 122 119 114 108 105 95 59 16 91 128 122 131 122 98 58 50 88 102 106 119 119 115 118 118 109 111 117 113 110 102 80 78 77 79 91 76 54 86 105 121 134 140 141 141 142 144 145
31 34 36 37 38 38 38 40 45 49 52 55 58 59 61 63 65 65 65 65 65 66 67 69 69 72 74 77 83 89 95 97 102 109 115 122 125 127 128 125 121 117 114 107 104 95 78 59 52 89 113 109 115 109 65 54 84 100 104 102 100 107 110 106 108 103 104 114 110 102 91 76 70 74 91 97 81 87 112 111 128 137 141 143 143 143 145 149
33 35 38 39 39 39 39 41 46 50 53 56 58 60 62 64 65 64 64 62 63 65 66 67 67 69 70 73 81 89 96 100 106 110 117 124 125 129 128 123 117 112 108 99 91 77 67 72 72 88 103 96 98 94 68 68 92 105 104 97 91 94 98 107 116 117 114 108 100 95 86 78 69 60 74 86 84 107 112 115 128 135 140 142 143 145 150 155
34 36 40 41 41 40 40 42 46 50 53 57 59 61 63 64 64 64 64 63 63 65 65 65 66 69 69 74 83 89 94 101 108 111 118 124 127 131 128 121 113 108 106 94 79 72 73 80 83 92 98 92 87 80 77 76 85 99 102 99 98 97 92 95 107 114 113 104 97 94 85 74 68 60 66 81 91 105 105 113 127 134 139 142 146 150 155 162
35 38 40 42 43 42 42 42 45 49 53 56 58 61 64 64 64 64 65 64 64 63 63 64 66 69 71 79 87 90 93 101 106 111 117 123 128 130 124 115 108 108 104 88 79 79 85 92 97 96 86 85 79 73 83 84 82 87 97 101 97 99 95 89 98 109 107 99 95 88 77 68 68 69 70 83 100 109 105 110 123 132 137 143 148 150 156 163
36 38 40 42 44 43 43 42 44 49 53 56 57 60 64 65 64 65 65 65 64 63 64 65 66 69 73 83 91 91 95 102 105 110 115 121 125 123 117 108 103 107 98 84 86 88 95 97 101 98 80 71 73 82 95 95 96 90 96 102 95 102 101 91 104 115 109 96 90 82 74 73 72 66 56 75 104 109 110 112 119 128 134 142 147 154 163 168
37 39 41 43 44 44 44 43 45 49 53 57 58 60 64 65 67 68 68 67 65 64 65 67 69 71 75 84 90 92 99 104 105 109 114 118 123 119 111 101 97 102 96 83 84 96 112 99 97 95 74 63 72 89 101 100 115 106 92 96 105 116 112 105 111 113 108 94 92 89 82 72 57 44 42 77 108 109 115 118 126 133 140 151 159 165 172 179
37 39 41 43 44 45 45 45 47 51 55 58 59 61 63 66 69 72 72 70 68 67 66 68 70 72 76 85 90 94 100 104 107 110 112 114 121 121 108 95 95 101 98 80 70 92 127 110 101 93 65 66 73 77 94 107 119 113 88 77 104 121 120 114 108 108 104 88 96 94 76 51 31 35 60 99 114 113 119 126 141 146 156 168 173 182 188 194
38 40 42 44 45 45 46 48 50 53 55 57 60 64 65 67 70 72 73 71 70 68 67 68 71 74 77 86 94 97 99 102 110 114 113 112 115 120 111 91 85 100 104 87 58 72 114 125 104 84 72 81 74 67 83 95 99 101 86 71 90 108 110 108 109 123 107 87 108 92 56 29 28 44 69 100 115 116 121 133 156 165 184 188 189 201 211 213
38 41 43 45 46 46 48 50 52 54 56 60 62 63 64 67 69 71 70 70 70 67 67 68 68 73 78 88 97 96 95 100 111 116 116 113 108 111 113 88 75 97 99 89 64 63 98 118 104 95 93 84 70 70 76 75 84 86 73 74 86 92 97 105 115 131 102 104 125 82 31 7 17 41 63 93 118 116 120 144 179 209 218 213 215 221 231 231
38 42 45 47 48 48 50 51 52 54 56 60 61 60 60 62 66 68 66 65 66 64 67 66 65 72 78 88 98 96 94 97 108 118 116 114 110 104 102 90 97 105 92 85 74 68 92 109 104 101 89 68 67 73 67 62 71 72 62 64 75 86 98 100 122 132 95 120 130 53 20 357 0 11 42 85 129 120 117 223 240 245 241 239 241 240 247 249
39 44 47 48 49 50 51 51 52 53 55 56 57 56 55 57 62 67 67 66 67 67 66 63 63 70 73 84 96 95 90 91 107 121 117 115 113 102 92 96 112 110 90 85 75 65 84 105 107 96 61 55 68 67 56 53 59 69 71 54 53 76 41 344 136 147 103 120 111 38 17 358 353 336 358 74 142 124 91 272 265 258 259 250 251 255 258 258
40 44 48 49 48 51 51 50 51 51 52 52 51 52 53 57 62 65 69 68 70 71 65 61 64 71 75 84 88 82 81 94 112 118 114 115 112 106 100 98 108 111 91 79 60 47 71 101 108 90 69 57 58 57 46 49 51 59 75 61 48 66 50 48 123 184 148 112 10 21 10 355 352 328 302 304 213 215 295 279 271 258 264 251 248 256 259 260
40 44 49 48 47 49 48 49 49 49 49 47 46 48 51 55 57 62 69 70 69 68 63 65 74 77 76 80 82 79 81 94 110 113 111 112 113 109 101 93 94 112 105 58 34 32 60 99 110 85 67 48 38 45 36 40 60 53 64 61 52 61 60 66 50 252 171 68 351 10 6 343 349 343 293 288 268 275 298 288 279 269 268 260 254 259 263 264
38 42 46 47 48 46 45 46 48 48 46 41 42 46 50 55 60 65 71 70 66 66 67 71 79 81 76 74 81 86 84 87 98 105 103 103 111 105 90 80 62 78 112 64 40 50 67 96 110 76 48 31 22 35 27 30 95 101 74 60 51 50 58 73 26 20 97 30 6 21 7 340 349 351 311 305 295 294 300 290 282 275 268 266 263 262 267 267
34 39 42 46 48 45 42 43 44 45 41 40 45 51 57 63 67 68 68 67 68 71 72 74 80 84 83 77 80 86 85 84 89 95 90 85 99 89 57 49 71 88 105 91 49 50 68 102 108 68 36 21 4 16 23 53 117 119 84 67 72 61 48 86 11 48 79 53 24 22 8 351 355 346 324 319 306 305 300 291 294 284 272 272 271 269 271 269
29 33 38 44 45 42 41 41 41 40 39 46 53 58 64 66 67 65 59 61 70 71 67 70 80 85 82 77 77 80 82 81 82 89 82 73 83 62 28 49 88 81 89 108 51 26 68 100 86 18 346 342 333 348 37 70 104 103 71 58 78 75 43 21 69 74 77 53 11 7 17 10 7 356 343 330 311 319 306 293 304 296 281 278 275 272 272 271
22 26 32 36 37 37 40 43 42 40 43 53 58 63 70 68 69 67 56 56 62 62 63 70 83 84 79 78 78 79 80 80 80 85 77 63 70 62 48 75 91 78 69 87 63 40 80 84 44 309 297 346 350 11 50 56 68 75 69 59 54 58 19 321 91 125 40 41 24 25 40 21 12 6 356 354 338 335 324 303 305 299 292 286 280 277 274 274
18 19 23 28 30 29 36 41 40 40 46 54 59 67 73 69 69 67 61 60 55 59 66 69 76 78 75 77 77 78 78 77 75 73 71 66 69 74 73 76 84 86 66 57 63 67 71 72 28 276 291 6 17 30 47 47 58 52 46 51 15 350 341 335 350 172 357 27 37 42 47 25 12 8 0 1 353 345 337 321 305 291 294 291 284 283 278 278
16 16 16 21 22 21 30 32 34 42 48 55 61 66 70 66 62 57 60 66 60 61 66 67 72 75 74 74 71 73 73 72 75 73 72 74 72 77 82 77 76 79 70 66 76 77 63 52 329 334 358 58 52 34 44 51 63 59 54 52 10 352 15 341 344 64 25 22 54 60 42 25 20 18 5 356 354 354 347 334 323 297 292 290 287 286 280 277
11 14 15 14 15 19 21 23 39 49 52 66 69 65 65 60 57 54 57 68 66 63 67 69 74 75 75 72 66 72 70 67 77 78 72 73 72 78 85 79 74 76 77 80 83 79 67 51 42 43 49 81 77 46 55 64 57 48 61 60 26 22 37 19 52 78 51 42 66 72 48 24 23 28 12 358 360 4 0 352 343 329 318 311 303 295 286 280
5 10 12 13 14 6 7 38 59 53 60 77 70 58 56 51 50 53 58 67 65 62 65 69 74 72 71 68 67 75 70 64 75 80 73 74 73 75 78 75 74 77 78 81 81 74 64 55 61 62 62 73 68 61 77 84 69 48 54 68 77 76 47 53 88 90 66 59 73 69 50 21 14 25 11 3 7 6 6 6 354 341 335 326 312 304 299 292
358 2 7 11 6 355 15 83 65 49 68 80 62 47 45 44 46 50 61 69 64 61 63 67 73 72 68 67 68 73 67 62 72 78 75 74 74 74 73 70 74 78 78 78 77 68 54 51 65 71 72 67 59 66 87 89 79 64 61 72 79 75 56 63 88 88 76 81 83 56 54 38 21 20 10 14 16 7 5 10 4 355 348 335 321 318 315 307
352 352 359 5 3 12 88 98 55 53 76 72 49 39 35 38 43 50 66 68 62 66 67 68 73 73 71 68 68 72 69 65 69 75 77 73 70 72 71 69 72 74 71 69 69 65 57 55 61 66 68 66 60 70 91 89 79 70 64 70 67 64 63 72 80 75 76 77 59 53 63 60 41 25 20 33 29 11 6 8 7 6 2 353 342 334 328 319
348 345 347 351 358 50 118 84 62 80 88 52 30 26 27 35 44 59 75 70 62 69 72 71 72 72 70 65 67 74 75 73 73 74 74 69 66 71 70 69 77 73 63 69 74 69 63 63 67 70 67 69 70 73 88 84 74 65 69 75 68 69 80 81 75 68 71 70 57 51 63 59 43 26 25 34 33 17 8 6 5 6 4 359 352 344 338 334
342 340 336 335 330 167 143 88 87 100 80 19 17 17 24 37 49 63 73 74 66 67 73 72 68 68 65 62 67 70 66 70 77 76 69 64 62 70 73 66 77 78 60 66 78 74 69 71 75 77 72 70 71 67 75 75 64 51 67 78 74 71 76 77 74 70 66 60 52 49 61 57 39 26 29 33 30 17 11 7 4 3 2 359 356 352 348 345
330 329 324 313 218 182 168 136 142 146 332 355 10 15 26 40 60 63 64 75 71 65 74 70 62 69 72 68 66 63 59 62 72 73 67 64 58 61 71 62 68 82 63 56 68 70 69 71 68 68 67 68 72 72 73 71 61 55 63 73 76 71 72 72 67 69 64 47 38 56 63 56 35 19 28 30 23 19 17 9 5 5 7 6 1 357 354 350
317 314 307 275 196 187 185 175 179 247 322 348 4 18 33 48 67 70 70 81 70 61 69 64 60 75 82 78 69 65 65 59 63 69 64 60 54 53 63 64 66 77 62 52 62 62 61 62 58 58 59 62 69 71 70 67 64 63 64 71 78 72 67 64 53 57 62 47 42 65 61 52 40 21 19 17 15 24 25 13 8 7 9 9 4 1 358 355
307 297 287 242 202 197 194 188 203 312 343 358 14 35 56 57 55 70 81 68 64 66 67 62 64 76 79 73 64 65 73 62 60 73 72 64 57 56 67 77 78 73 59 59 68 63 61 58 50 49 50 57 70 73 65 59 57 59 61 67 75 70 60 57 47 50 58 50 51 62 50 44 38 25 21 18 17 21 17 11 13 12 10 9 7 5 3 0
297 287 272 223 203 203 198 201 233 281 4 18 46 63 75 71 62 80 83 72 91 92 74 68 72 77 72 59 44 49 72 69 63 76 83 72 61 60 65 68 75 76 71 77 77 70 64 49 41 45 44 51 73 81 70 59 53 54 61 71 77 77 69 60 48 48 48 39 39 40 38 40 33 20 22 22 17 16 10 8 14 13 10 10 9 7 6 5
290 273 247 217 211 213 210 215 226 208 134 78 89 74 69 72 75 79 66 67 107 95 76 78 71 64 57 48 36 51 70 64 63 75 73 60 54 53 50 40 50 78 86 81 77 78 77 53 41 53 52 50 64 79 84 78 63 57 70 76 73 80 84 74 64 59 43 26 24 22 32 48 40 22 21 19 15 16 10 5 10 11 9 11 10 8 7 5
279 250 227 219 216 214 213 215 210 187 166 135 101 78 75 83 95 81 52 354 33 48 51 62 66 53 18 17 26 48 80 75 67 70 62 59 58 49 43 31 39 71 84 78 73 73 78 70 46 56 59 57 59 64 76 77 63 55 70 70 60 70 81 70 67 67 51 38 30 28 39 48 40 27 21 19 18 15 7 4 9 8 8 11 9 6 5 2
261 234 220 217 213 206 203 201 192 182 173 142 105 102 121 143 144 113 296 302 19 94 79 44 54 61 7 356 17 29 74 86 73 67 58 58 57 50 50 41 40 65 82 86 78 65 70 64 37 48 48 51 63 61 60 69 65 51 57 60 50 68 78 69 51 41 49 54 39 37 49 35 27 25 18 18 18 9 4 6 8 5 7 10 5 2 360 358
248 231 222 221 214 206 202 195 189 187 175 145 142 187 210 225 210 223 268 328 79 124 103 64 43 64 13 351 29 32 68 72 55 64 67 42 42 47 46 33 33 60 86 87 71 69 81 57 18 51 51 36 53 58 49 53 63 57 53 54 46 49 55 62 53 32 41 50 34 34 41 24 21 19 10 14 14 360 354 359 2 4 6 3 357 355 353 354
240 228 221 221 214 209 206 199 198 194 180 165 177 203 224 232 237 256 273 305 8 120 109 115 240 68 75 121 89 341 65 63 32 56 76 41 41 49 42 34 31 36 54 70 59 58 83 64 6 30 59 40 42 49 35 23 35 53 54 49 53 48 31 32 43 37 36 39 26 21 21 18 19 8 359 5 3 347 343 349 356 358 357 353 351 350 349 351
233 222 220 222 215 210 208 208 210 199 190 195 199 209 239 239 254 273 285 284 237 164 150 208 207 83 137 144 202 273 311 55 359 47 69 48 43 26 27 41 26 11 30 63 70 52 70 79 16 355 27 39 29 35 28 8 10 23 29 27 36 52 44 31 35 44 43 34 17 9 6 3 357 349 348 350 346 342 347 352 352 349 348 350 351 350 350 352
229 220 220 224 218 216 218 222 220 206 201 207 203 208 231 236 264 281 287 260 223 198 210 236 205 137 233 248 277 268 268 267 328 350 296 10 43 340 357 35 28 6 31 52 61 47 45 68 47 344 360 26 19 19 32 21 13 22 29 25 21 23 29 34 30 29 40 34 18 13 358 339 338 345 342 338 341 346 354 356 349 345 348 349 349 350 352 354
230 222 222 224 222 224 228 228 224 214 207 210 213 220 232 243 264 279 291 262 217 208 222 233 214 214 249 270 281 287 288 258 281 328 292 282 91 288 315 2 20 4 34 38 36 39 34 54 54 8 11 39 23 9 38 50 42 45 43 39 35 25 25 33 9 357 16 22 5 11 352 329 335 343 333 333 345 348 353 358 353 348 351 350 349 350 351 353
229 225 225 226 227 228 227 226 228 219 209 217 229 234 246 259 256 258 274 278 227 222 234 241 231 237 254 258 265 283 283 245 255 303 292 245 164 223 296 350 18 49 72 34 356 11 68 59 46 19 19 72 13 8 34 51 47 43 33 32 32 19 22 36 352 336 360 3 353 6 2 335 335 342 338 336 344 350 356 1 359 354 353 352 351 351 352 354
231 231 230 231 231 226 221 228 234 226 220 231 241 244 254 258 244 244 254 253 246 242 240 248 247 246 251 251 260 268 251 240 258 270 262 279 285 274 311 15 31 13 38 339 323 342 23 34 34 14 355 343 348 358 10 20 26 23 7 9 15 6 8 16 345 348 2 356 357 6 354 333 334 343 347 345 345 353 356 358 0 357 354 355 355 353 353 354
236 234 232 233 231 224 222 226 228 228 232 241 249 254 260 250 231 236 241 236 247 245 236 248 250 243 245 249 264 261 236 224 248 255 240 263 283 287 10 48 55 289 281 258 266 322 316 307 26 35 7 346 343 348 347 348 359 2 347 347 357 4 11 4 350 4 2 344 358 7 343 323 329 339 346 347 349 353 349 349 354 354 353 356 355 352 352 354
236 232 233 236 232 226 227 224 222 228 234 239 245 253 257 246 231 229 229 235 249 239 232 249 245 235 251 261 274 273 239 215 229 250 257 273 282 280 337 32 33 267 265 250 242 260 278 270 292 61 12 323 318 318 314 321 337 341 334 336 346 360 9 358 347 0 354 332 345 350 328 322 329 338 343 342 345 347 340 339 344 346 352 355 351 351 353 355
231 230 235 239 234 231 235 232 228 230 232 235 244 248 245 242 242 240 233 239 252 245 234 244 240 244 268 265 264 273 251 225 227 239 248 260 275 275 265 298 327 278 260 269 268 264 272 286 282 236 235 262 272 283 290 309 328 325 321 325 332 346 6 15 3 348 336 335 335 323 319 331 330 332 336 333 335 337 331 333 340 344 350 351 347 350 354 354
229 229 232 235 237 237 239 239 237 236 234 233 239 244 245 246 248 251 247 240 240 240 241 250 249 247 252 250 255 263 251 238 240 243 246 253 265 277 277 290 306 279 259 297 295 266 272 289 278 252 261 270 265 272 286 303 307 299 304 310 309 324 1 16 353 330 340 353 333 314 321 335 325 322 326 325 329 332 330 332 338 342 347 348 349 354 356 354
231 231 230 231 234 234 234 239 242 241 239 235 235 238 245 248 246 246 248 247 244 241 243 256 260 247 239 239 247 254 252 252 252 249 251 258 262 276 287 291 293 283 281 310 305 272 253 272 267 263 281 286 279 277 280 286 292 295 298 295 296 309 335 337 318 317 346 346 318 308 318 322 318 319 321 322 326 329 331 336 340 341 345 350 355 359 358 353
233 234 233 234 235 233 234 240 242 240 239 238 237 238 240 245 246 244 244 248 253 250 243 248 256 249 239 239 242 248 249 248 250 249 247 252 257 261 271 282 286 286 291 303 300 280 259 268 270 273 290 291 286 284 279 275 285 293 293 289 287 288 289 296 304 310 325 321 311 313 316 311 310 309 313 324 329 331 338 345 346 344 347 352 356 357 355 352
234 234 236 238 238 237 238 240 238 238 240 238 238 240 240 240 244 247 245 241 246 253 249 245 250 248 240 238 240 245 245 239 241 246 240 241 253 255 255 263 270 280 289 289 291 291 277 272 274 281 296 292 290 295 286 274 275 284 293 298 300 298 299 303 309 315 323 320 318 327 325 315 310 304 310 324 330 337 349 348 344 344 347 352 353 352 352 350
235 235 236 236 236 237 239 240 237 236 239 238 237 242 244 241 242 248 249 243 239 243 245 243 246 250 246 241 242 248 249 241 238 241 236 235 245 250 255 259 256 267 281 279 285 293 284 276 280 291 296 285 288 301 293 280 281 291 294 294 286 283 292 295 300 305 308 312 320 329 325 312 308 310 317 322 324 334 343 341 337 338 342 347 347 347 349 347
237 235 234 233 234 236 237 239 239 235 235 238 241 244 245 245 250 253 252 251 246 239 241 243 242 247 251 248 248 252 250 240 236 241 242 243 247 251 256 256 247 252 267 272 278 283 279 278 280 282 286 280 285 301 300 292 292 291 287 276 262 268 284 295 303 301 296 308 319 313 305 302 307 317 323 323 324 329 332 330 331 331 334 339 341 344 346 344